Regional Weather Roundup
Issued by NWS Burlington, VT

Home | Current Version | Previous Version | Text Only | Print | Product List | Glossary On
Versions: 1 2 3 4 5 6 7 8 9 10 11 12 13 14 15 16 17 18 19 20 21 22 23 24 25 26 27 28 29 30 31 32 33 34 35 36 37 38 39 40 41 42 43 44 45 46 47 48 49 50
000
ASUS41 KBTV 242230
RWRBTV
VERMONT REGIONAL WEATHER ROUNDUP
NATIONAL WEATHER SERVICE BURLINGTON VT
600 PM EDT THU JUL 24 2014

NOTE: "FAIR" INDICATES FEW OR NO CLOUDS BELOW 12,000 FEET WITH NO
SIGNIFICANT WEATHER AND/OR OBSTRUCTIONS TO VISIBILITY.

* THESE REPORTS ARE NOT UNDER NWS QUALITY CONTROL AND/OR DO NOT
  REPORT WEATHER SUCH AS PRECIPITATION AND FOG.

VTZ001>019-242300-
_____VERMONT_____


CITY           SKY/WX    TMP DP  RH WIND       PRES   REMARKS
BURLINGTON     CLEAR     72  50  45 N10       29.90F
MONTPELIER     CLEAR     68  50  52 N8        29.95F
MORRISVILLE    CLEAR    N/A N/A N/A N9        29.93S
ST. JOHNSBURY*   N/A     70  49  47 MISG      29.88S
LYNDONVILLE*   FAIR      67  48  50 NW6       29.93S
MIDDLEBURY*    FAIR      71  52  51 N8G17     29.89S
RUTLAND*       CLEAR     70  52  52 NW6       29.90S
SPRINGFIELD    CLEAR     74  52  46 VRB7      29.88S
HIGHGATE*      FAIR      69  51  51 NW5       29.91S
NEWPORT*       FAIR     N/A N/A N/A W7        29.92S
BENNINGTON     PTCLDY    74  54  49 VRB5      29.89S
SUTTON*          N/A     64 N/A N/A MISG        N/A
GALLUP MILLS*    N/A     54 N/A N/A MISG        N/A
UNION VILLAGE*   N/A     72 N/A N/A MISG        N/A
MT. MANSFIELD*   N/A     55 N/A N/A NW15        N/A

_____LAKE CHAMPLAIN_____


CITY           SKY/WX    TMP DP  RH WIND       PRES   REMARKS
COLCHESTER RF*   N/A     70  52  52 N15         N/A
DIAMOND ISL*     N/A     70  52  52 N14         N/A

$$

NYZ007-026>031-035-052-083-242300-
_____NORTHERN NEW YORK_____


CITY           SKY/WX    TMP DP  RH WIND       PRES   REMARKS
PLATTSBURGH    CLEAR     72  50  45 NW10      29.90F
SARANAC LAKE   CLEAR     66  47  50 NW8       29.94F
MASSENA        CLEAR     71  51  49 W7        29.94F
OGDENSBURG*    CLEAR     73  52  46 CALM      29.94F
POTSDAM*       CLEAR     70  54  56 NW5       29.95S
PARISHVILLE*     N/A     66 N/A N/A NW8         N/A
WATERTOWN      CLEAR     72  51  47 W10       29.96S
FT DRUM        CLEAR     70  47  43 NW8       29.96S
ALBANY         MOCLDY    77  55  46 NW10      29.87S
GLENS FALLS    PTCLDY    74  55  51 E12       29.87S

$$
NHZ002-005-011-242300-
_____NEW HAMPSHIRE_____


CITY           SKY/WX    TMP DP  RH WIND       PRES   REMARKS
LEBANON        PTCLDY    75  50  41 NW9       29.88R
KEENE          CLEAR     75  50  41 N12       29.87S
MT WASHINGTON  FOG       45  45 100 W22         N/A  VSB 1/8
PLYMOUTH       FAIR      73  51  46 NW12      29.87R
WHITEFIELD     CLEAR     70  50  49 NW7       29.89S

$$

_____REGIONAL QUEBEC LOCATIONS_____


CITY           SKY/WX    TMP DP  RH WIND       PRES   REMARKS
MONTREAL       PTCLDY    73  50  43 W12G20    29.89F
QUEBEC CITY    PTCLDY    73  48  40 W14       29.82S
SHERBROOKE     CLEAR     66  50  55 NW10G17   29.89F

_____REGIONAL ONTARIO LOCATIONS_____


CITY           SKY/WX    TMP DP  RH WIND       PRES   REMARKS
OTTAWA         PTCLDY    73  54  49 W7G17     29.93F

______KEY______
VSB  - VISIBILITY IN MILES
WCI  - WIND CHILL INDEX
HX   - HEAT INDEX
$$



USA.gov is the U.S. government's official web portal to all federal, state and local government web resources and services.